Location: Peebles
(55.6412°N, 3.1714°W)
Time: 21:50:23
(UTC+00:00)

deb Agena D - Pass Details

Date: 24 September 2023
Orbit: 794 x 979 km, 99.8° (Epoch: 28 November)

Event Time Altitude Azimuth Distance (km) Brightness Sun altitude
Rises 04:30:54 0° 18° (NNE) 3,690 10.3 -20.9°
Reaches altitude 10° 04:34:50 10° 354° (N) 2,745 9.2 -20.4°
Maximum altitude 04:37:29 13° 328° (NNW) 2,514 8.6 -20.1°
Drops below altitude 10° 04:40:09 10° 302° (WNW) 2,735 8.6 -19.8°
Enters shadow 04:40:36 - 298° (WNW) 2,813 8.6 -19.7°
